カタログに戻る

STARLINK-34250

運用中通信VLEO
NORAD 64690·PAYLOAD·🇺🇸 United States

打ち上げ Jun 28, 2025 から Cape Canaveral Space Force Station

Loading…

次のパス (今後24時間)

TLE

最新Source: CelesTrak SupGP

元期: Sep 15, 2026, 03:11 UTC

1 64690C 25139AC  26258.13312500  .00051710  00000+0  15275-2 0  2586
2 64690  53.1596 323.0345 0001273  86.4350 355.4475 15.34371230    18

AllMySatでSTARLINK-34250をリアルタイム追跡

Download on the App Store